カタログに戻る

COSMOS 2251 DEB

運用中LEO
NORAD 33934·DEBRIS·🇷🇺 Russia

打ち上げ Jun 16, 1993 から Plesetsk Cosmodrome

Loading…

次のパス (今後24時間)

TLE

最新Source: Space-Track

元期: Sep 14, 2026, 12:39 UTC

1 33934U 93036EP  26257.52747324  .00001699  00000-0  35297-3 0  9993
2 33934  74.0352 294.2344 0016895 336.6622  23.3776 14.60850145927640

AllMySatでCOSMOS 2251 DEBをリアルタイム追跡

Download on the App Store